Previsão horária em Cegelnya

Hoje, 2 Agosto, Segunda-feira

Tempo Temperatura Precipitação Vento Pressão Humidade
00:00 +21°C° 0.1 mm 2 m/s 744 mmHg 87%
01:00 +21°C° 0.1 mm 2 m/s 744 mmHg 89%
02:00 +20°C° 0.1 mm 2 m/s 743 mmHg 91%
03:00 +20°C° 0 mm 2 m/s 743 mmHg 91%
04:00 +20°C° 0 mm 2 m/s 743 mmHg 92%
05:00 +20°C° 0 mm 3 m/s 743 mmHg 92%
06:00 +22°C° 0 mm 3 m/s 742 mmHg 86%
07:00 +23°C° 0 mm 4 m/s 742 mmHg 81%
08:00 +26°C° 0 mm 5 m/s 742 mmHg 75%
09:00 +28°C° 0 mm 5 m/s 742 mmHg 66%
10:00 +30°C° 0 mm 6 m/s 742 mmHg 56%
11:00 +32°C° 0 mm 7 m/s 741 mmHg 47%
12:00 +32°C° 0 mm 7 m/s 742 mmHg 46%
13:00 +32°C° 0 mm 7 m/s 742 mmHg 45%
14:00 +32°C° 0 mm 6 m/s 742 mmHg 44%
15:00 +30°C° 0 mm 6 m/s 742 mmHg 47%
16:00 +28°C° 0 mm 6 m/s 742 mmHg 50%
17:00 +27°C° 0 mm 6 m/s 742 mmHg 54%
18:00 +26°C° 0 mm 5 m/s 742 mmHg 59%
19:00 +23°C° 0 mm 5 m/s 743 mmHg 63%
20:00 +22°C° 0 mm 4 m/s 743 mmHg 68%
21:00 +20°C° 0 mm 4 m/s 744 mmHg 73%
22:00 +19°C° 0 mm 3 m/s 744 mmHg 77%
23:00 +17°C° 0 mm 3 m/s 745 mmHg 81%

Amanhã, 3 Agosto, Terça-feira

Tempo Temperatura Precipitação Vento Pressão Humidade
00:00 +17°C° 0 mm 2 m/s 745 mmHg 84%
01:00 +16°C° 0 mm 2 m/s 745 mmHg 87%
02:00 +15°C° 0 mm 2 m/s 746 mmHg 90%
03:00 +15°C° 0 mm 2 m/s 746 mmHg 91%
04:00 +15°C° 0 mm 2 m/s 746 mmHg 93%
05:00 +15°C° 0 mm 2 m/s 746 mmHg 94%
06:00 +16°C° 0 mm 3 m/s 747 mmHg 86%
07:00 +18°C° 0 mm 3 m/s 747 mmHg 77%
08:00 +20°C° 0 mm 3 m/s 748 mmHg 69%
09:00 +21°C° 0 mm 3 m/s 748 mmHg 60%
10:00 +23°C° 0 mm 4 m/s 748 mmHg 52%
11:00 +25°C° 0 mm 4 m/s 748 mmHg 43%
12:00 +25°C° 0 mm 4 m/s 748 mmHg 41%
13:00 +26°C° 0 mm 4 m/s 748 mmHg 40%
14:00 +26°C° 0 mm 4 m/s 748 mmHg 38%
15:00 +25°C° 0 mm 4 m/s 748 mmHg 39%
16:00 +25°C° 0 mm 4 m/s 748 mmHg 41%
17:00 +25°C° 0 mm 4 m/s 748 mmHg 42%
18:00 +22°C° 0 mm 3 m/s 748 mmHg 46%
19:00 +21°C° 0 mm 2 m/s 748 mmHg 49%
20:00 +20°C° 0 mm 1 m/s 749 mmHg 53%
21:00 +20°C° 0 mm 1 m/s 749 mmHg 53%
22:00 +20°C° 0 mm 1 m/s 749 mmHg 54%
23:00 +20°C° 0 mm 1 m/s 750 mmHg 54%

Depois de amanhã, 4 Agosto, Quarta-feira

Tempo Temperatura Precipitação Vento Pressão Humidade
00:00 +19°C° 0 mm 1 m/s 750 mmHg 57%
01:00 +18°C° 0 mm 1 m/s 750 mmHg 61%
02:00 +16°C° 0 mm 1 m/s 750 mmHg 64%
03:00 +16°C° 0 mm 1 m/s 750 mmHg 67%
04:00 +15°C° 0 mm 1 m/s 750 mmHg 71%
05:00 +14°C° 0 mm 1 m/s 750 mmHg 74%
06:00 +16°C° 0 mm 1 m/s 751 mmHg 67%
07:00 +19°C° 0 mm 1 m/s 751 mmHg 61%
08:00 +22°C° 0 mm 1 m/s 751 mmHg 54%
09:00 +23°C° 0 mm 2 m/s 751 mmHg 49%
10:00 +24°C° 0 mm 2 m/s 751 mmHg 44%
11:00 +26°C° 0 mm 3 m/s 751 mmHg 39%
12:00 +27°C° 0 mm 3 m/s 751 mmHg 38%
13:00 +27°C° 0 mm 3 m/s 751 mmHg 36%
14:00 +28°C° 0 mm 3 m/s 750 mmHg 34%
15:00 +27°C° 0 mm 3 m/s 750 mmHg 36%
16:00 +27°C° 0 mm 3 m/s 750 mmHg 38%
17:00 +27°C° 0 mm 2 m/s 750 mmHg 39%
18:00 +25°C° 0 mm 2 m/s 750 mmHg 44%
19:00 +23°C° 0 mm 2 m/s 750 mmHg 49%
20:00 +20°C° 0 mm 2 m/s 750 mmHg 53%
21:00 +20°C° 0 mm 2 m/s 750 mmHg 54%
22:00 +21°C° 0 mm 1 m/s 750 mmHg 54%
23:00 +20°C° 0 mm 1 m/s 751 mmHg 54%

5 Agosto, Quinta-feira

Tempo Temperatura Precipitação Vento Pressão Humidade
00:00 +20°C° 0 mm 1 m/s 750 mmHg 55%
01:00 +20°C° 0 mm 1 m/s 750 mmHg 56%
02:00 +19°C° 0 mm 2 m/s 750 mmHg 57%
03:00 +19°C° 0.1 mm 2 m/s 750 mmHg 62%
04:00 +18°C° 0.1 mm 2 m/s 750 mmHg 67%
05:00 +18°C° 0.1 mm 2 m/s 750 mmHg 73%
06:00 +18°C° 0.4 mm 2 m/s 750 mmHg 77%
07:00 +18°C° 0.4 mm 2 m/s 750 mmHg 81%
08:00 +18°C° 0.4 mm 3 m/s 750 mmHg 85%
09:00 +19°C° 0 mm 3 m/s 750 mmHg 80%
10:00 +19°C° 0 mm 3 m/s 750 mmHg 75%
11:00 +20°C° 0 mm 4 m/s 750 mmHg 70%
12:00 +22°C° 0 mm 4 m/s 750 mmHg 65%
13:00 +23°C° 0 mm 4 m/s 750 mmHg 60%
14:00 +25°C° 0 mm 4 m/s 749 mmHg 55%
15:00 +26°C° 0 mm 4 m/s 749 mmHg 54%
16:00 +26°C° 0 mm 4 m/s 749 mmHg 53%
17:00 +26°C° 0 mm 4 m/s 748 mmHg 52%
18:00 +23°C° 0.4 mm 4 m/s 748 mmHg 62%
19:00 +21°C° 0.4 mm 4 m/s 748 mmHg 72%
20:00 +19°C° 0.4 mm 4 m/s 747 mmHg 82%
21:00 +19°C° 0.2 mm 4 m/s 747 mmHg 83%
22:00 +17°C° 0.2 mm 5 m/s 747 mmHg 84%
23:00 +17°C° 0.2 mm 5 m/s 747 mmHg 85%

6 Agosto, Sexta-feira

Tempo Temperatura Precipitação Vento Pressão Humidade
00:00 +18°C° 0.2 mm 4 m/s 747 mmHg 86%
01:00 +18°C° 0.2 mm 4 m/s 747 mmHg 87%
02:00 +17°C° 0.2 mm 3 m/s 746 mmHg 88%
03:00 +17°C° 0.1 mm 4 m/s 746 mmHg 88%
04:00 +17°C° 0.1 mm 4 m/s 745 mmHg 87%
05:00 +17°C° 0.1 mm 4 m/s 745 mmHg 87%
06:00 +19°C° 0 mm 5 m/s 745 mmHg 80%
07:00 +20°C° 0 mm 5 m/s 744 mmHg 74%
08:00 +22°C° 0 mm 5 m/s 744 mmHg 67%
09:00 +24°C° 0 mm 6 m/s 744 mmHg 59%
10:00 +27°C° 0 mm 6 m/s 744 mmHg 51%
11:00 +30°C° 0 mm 6 m/s 744 mmHg 44%
12:00 +29°C° 0 mm 6 m/s 744 mmHg 47%
13:00 +29°C° 0 mm 5 m/s 744 mmHg 51%
14:00 +28°C° 0 mm 5 m/s 744 mmHg 55%
15:00 +26°C° 0.9 mm 5 m/s 744 mmHg 65%
16:00 +23°C° 0.9 mm 6 m/s 744 mmHg 75%
17:00 +21°C° 0.9 mm 6 m/s 744 mmHg 85%
18:00 +21°C° 0.8 mm 5 m/s 745 mmHg 88%
19:00 +20°C° 0.8 mm 3 m/s 745 mmHg 90%
20:00 +19°C° 0.8 mm 2 m/s 745 mmHg 92%
21:00 +20°C° 0 mm 1 m/s 745 mmHg 93%
22:00 +20°C° 0 mm 1 m/s 746 mmHg 93%
23:00 +19°C° 0 mm 1 m/s 746 mmHg 94%

7 Agosto, Sábado

Tempo Temperatura Precipitação Vento Pressão Humidade
00:00 +19°C° 0 mm 1 m/s 746 mmHg 94%
01:00 +18°C° 0 mm 2 m/s 746 mmHg 95%
02:00 +17°C° 0 mm 2 m/s 746 mmHg 95%
03:00 +17°C° 0 mm 2 m/s 746 mmHg 95%
04:00 +17°C° 0 mm 2 m/s 747 mmHg 95%
05:00 +17°C° 0 mm 2 m/s 747 mmHg 95%
06:00 +17°C° 0.6 mm 2 m/s 747 mmHg 94%
07:00 +19°C° 0.6 mm 1 m/s 747 mmHg 92%
08:00 +19°C° 0.6 mm 1 m/s 747 mmHg 90%
09:00 +19°C° 1 mm 2 m/s 748 mmHg 89%
10:00 +19°C° 1 mm 2 m/s 748 mmHg 87%
11:00 +20°C° 1 mm 2 m/s 748 mmHg 85%
12:00 +21°C° 0.2 mm 2 m/s 748 mmHg 78%
13:00 +24°C° 0.2 mm 2 m/s 748 mmHg 70%
14:00 +25°C° 0.2 mm 2 m/s 748 mmHg 63%
15:00 +25°C° 0.1 mm 2 m/s 749 mmHg 63%
16:00 +25°C° 0.1 mm 2 m/s 749 mmHg 62%
17:00 +25°C° 0.1 mm 2 m/s 749 mmHg 62%
18:00 +24°C° 0 mm 2 m/s 749 mmHg 69%
19:00 +21°C° 0 mm 2 m/s 749 mmHg 76%
20:00 +20°C° 0 mm 2 m/s 750 mmHg 83%
21:00 +20°C° 0 mm 1 m/s 750 mmHg 85%
22:00 +19°C° 0 mm 1 m/s 750 mmHg 87%
23:00 +19°C° 0 mm 1 m/s 750 mmHg 90%
Mostrar mais

Necessitamos do seu Consentimento

A Meteoprog e os seus Fornecedores de Serviços podem armazenar e aceder a dados pessoais como cookies, identificadores do dispositivo ou outras tecnologias semelhantes existentes no seu dispositivo e processar estes dados para personalizar conteúdos e anúncios, assim como funcionalidades nas redes sociais e análise de tráfego.

  • Armazenar e/ou aceder a informações no seu dispositivo

    Os cookies, identificadores do dispositivo ou outras informações podem ser armazenados ou acedidos no seu dispositivo, para os fins acima indicados.

  • Anúncios e conteúdos personalizados, medição de anúncios e conteúdos, dados sobre o público-alvo e desenvolvimento de produtos

    Os anúncios e os conteúdos podem ser personalizados com base num perfil. Podem ser adicionados dados adicionais para uma maior personalização dos anúncios e dos conteúdos. A eficácia dos anúncios e dos conteúdos pode ser medida. Podem ser obtidas informações sobre o público que visualizou os anúncios e os conteúdos. Estes dados podem ser usados para desenvolver ou melhorar sistemas, softwares ou a experiência do utilizador.

Ao clicar em "Eu concordo”, permitirá o uso de cookies, identificadores do dispositivo e web beacons mencionados ou outras tecnologias semelhantes. As configurações do navegador do seu dispositivo podem ser alteradas.

Para certos fins, podem ser invocados interesses legítimos ao invés de consentimento. Pode ler mais informação sobre este assunto na nossa Política de Privacidade e Cookies.